Find Starlink 3324

NORAD ID: 50814 Int'l Des: 2022-001 Owner: SPXS Country: US Constellation: starlink operational
LEOCIRCULAR

当前视图

正在加载3D地球...

About Starlink 3324

Starlink 3324 (NORAD 50814) is a starlink constellation satellite (v1.5) launched Jan 6, 2022 by SPXS of US. It operates in LEO, CIRCULAR orbit with a mass of 297.00 kg.

即将过境

Passes for default location (London). Set your location on the main map for personalized predictions.

高度历史

Loading altitude history...

两行轨道根数

1 50814U 22001M 26262.89792292 -.00000003 00000-0 11663-4 0 9994
2 50814 53.1619 6.5677 0001124 74.9579 285.1547 15.31701592259872
Epoch: Sep 19, 2026 • Age: 12 hours

当前状态

高度 480.8 km
远地点 / 近地点 N/A
速度 7.62 km/s
星下点 -30.83°S, 69.36°E
发射日期 Jan 6, 2022
运行时间 4.7 years
类型 internet

技术详情

分类 Payload
质量 297.00 kg
干质量 275.00 kg
长度 0.20 m
跨度 9.00 m
形状 ? Box + pan
制造商 SPXS
平台类型 Starlink
阶段状态 In Orbit
所有者/国家 SPXS/US

Most Searched